カタログに戻る

CZ-4C R/B

運用中PO
NORAD 49123·ROCKET BODY·🇨🇳 China

打ち上げ Sep 7, 2021 から Taiyuan Satellite Launch Center

Loading…

次のパス (今後24時間)

TLE

最新Source: Space-Track

元期: Sep 14, 2026, 13:51 UTC

1 49123U 21079B   26257.57757621  .00001986  00000-0  11179-3 0  9996
2 49123  98.3597 128.9370 0106915 111.0778 250.1920 15.09881473274917

AllMySatでCZ-4C R/Bをリアルタイム追跡

Download on the App Store